Location: Home
(42.5358°N, 72.7383°W)
Time: 10:21:45
(UTC-05:00)

S-56A Canister/Altair - Pass Details

Date: 05 December 2021
Orbit: 634 x 2499 km, 38.9° (Epoch: 22 January)

Event Time Altitude Azimuth Distance (km) Brightness Sun altitude
Rises 20:49:08 0° 204° (SSW) 5,941 12.1 -49.0°
Enters shadow 20:54:18 10° 192° (SSW) 4,714 11.4 -49.9°
Reaches altitude 10° 20:54:20 10° 192° (SSW) 4,709 - -49.9°
Maximum altitude 21:03:26 24° 146° (SSE) 3,169 - -51.5°
Drops below altitude 10° 21:10:32 10° 98° (E) 3,594 - -52.8°
Sets 21:13:49 0° 84° (E) 4,289 - -53.3°
